Location: *
(58.7167°N, 26.1833°E)
Time: 04:08:49
(UTC+00:00)

Cosmos 1953 Rocket - Pass Details

Date: 25 August 2019
Orbit: 605 x 634 km, 82.5° (Epoch: 17 September)

Event Time Altitude Azimuth Distance (km) Brightness Sun altitude
Rises 23:04:13 0° 344° (NNW) 2,916 8.1 -20.0°
Reaches altitude 10° 23:06:28 10° 341° (NNW) 2,009 7.0 -20.0°
Maximum altitude 23:10:51 60° 263° (W) 725 3.7 -19.8°
Enters shadow 23:11:49 47° 213° (SSW) 833 3.8 -19.8°
